Location: Newark
(45.5000°N, 11.4167°E)
Time: 02:48:34
(UTC+00:00)

Transit 2A Rocket - Pass Details

Date: 31 August 2019
Orbit: 592 x 911 km, 66.7° (Epoch: 16 September)

Event Time Altitude Azimuth Distance (km) Brightness Sun altitude
Rises 14:57:56 0° 170° (S) 3,442 8.5 29.7°
Reaches altitude 10° 15:01:03 10° 155° (SSE) 2,464 7.7 29.2°
Maximum altitude 15:05:09 21° 109° (ESE) 1,765 6.6 28.5°
Drops below altitude 10° 15:09:03 10° 62° (ENE) 2,327 7.0 27.9°
Sets 15:11:53 0° 46° (NE) 3,197 7.7 27.4°
